VII METROPOLIA BYDGOSZCZ MARATON MTB - 30 KM
Organizator : Rowerowa Brzoza
Data : 2015-05-24
Miejsce : Bydgoszcz
Dystans : 30 km
Zgłoszonych : 332
Wystartowało : 302
Nie ukończyło : 9
Ukończyło : 293
Na trasie : 9
Pełne wyniki :
Uproszczone :
Klasyfikacje w punktach pomiarowych: Start | 19.5km | Meta
Klasyfikacje wg kategorii: Wszyscy | K Open | M Open | K1 | M1 | K2 | M2 | K3 | M3 | K4 | M4 | M5 | M6
Klasyfikacja wg czasu netto.
MscZawodnikNumerKlubMiejscowośćKrajKategoriaMkatK/MCzas startu19.5kmCzas
netto
30km
Czas
brutto
30km
Różn.Tempo
min/km
Tempo
km/h
        
1JANCZARSKI Maks 383GDAŃSKM31 000:00:2100:49:3601:16:3501:16:56 2:3323,5
2OCHMAŃSKI Paweł 592BYDGOSZCZM32 000:00:1900:49:3801:16:3601:16:55+00:00:012:3323,5
3ŁOMNICKI Michał 602MTB KWIDZYN TEAMKWIDZYNM33 000:00:0500:49:5101:16:3701:16:42+00:00:022:3323,5
4ZARZYCKI Aleksander 633Apteka GeminiGDAŃSKM34 000:00:0200:49:1401:17:2901:17:31+00:00:542:3423,2
5HOFMAN Dariusz 595GOOGLE PRO ACTIVE TEAMWAŁCZM35 000:00:0300:50:2201:18:4401:18:47+00:02:092:3722,9
6BIŃCZAK Arkadiusz 317Cyklo KwidzynKWIDZYNM36 000:00:1500:52:3501:21:0001:21:15+00:04:252:4222,2
7KUROWSKI Kamil 427HTBBYDGOSZCZM37 000:00:1100:51:5901:21:0801:21:19+00:04:332:4222,2
8SZYCH Paweł 597CYKLO KWIDZYNKWIDZYNM38 000:00:1600:54:2501:23:3201:23:48+00:06:572:4721,5
9MANIA Jacek 453RUMIAM39 000:00:0400:53:5301:24:3001:24:34+00:07:552:4921,3
10SOWIŃSKI Remigiusz 563CYKLO KWIDZYNKWIDZYN (DANKOWO)M310 000:00:2200:55:1901:24:4101:25:03+00:08:062:4921,3
11SEICHTER Adam 502ProCycling.plTORUŃM311 000:00:0800:55:2901:26:0301:26:11+00:09:282:5220,9
12PAPIERNIK Michał 603Tczewski Klub RowerowyTCZEWM312 000:00:1700:56:3801:27:1101:27:28+00:10:362:5420,6
13GAS Artur 612KAMELEONPIŁAM313 000:00:5600:56:3101:27:4301:28:39+00:11:082:5520,5
14LEŚNIEWSKI Marek 588KOZIEGŁOWYM314 000:00:4300:59:2501:30:5601:31:39+00:14:213:0119,8
15KASZTELAN Jacek 632Apteka GeminiNOWY STAWM315 000:00:2701:00:2301:31:0701:31:34+00:14:323:0219,8
16SERGIEL Damian 503BYDGOSZCZM316 000:00:4701:00:1401:31:1601:32:03+00:14:413:0219,7
17BYKOWSKI Grzegorz 583BYDGOSZCZM317 000:00:0500:59:2701:31:4901:31:54+00:15:143:0319,6
18BILICKI Wojciech 314BYDGOSZCZM318 000:01:5201:00:2901:32:1801:34:10+00:15:433:0419,5
19ROGALSKI Radosław 486timeworkKORONOWOM319 000:01:5101:00:3101:32:4201:34:33+00:16:073:0519,4
20KUPCZYK Tomasz 426BYDGOSZCZM320 000:00:0601:00:2301:32:4501:32:51+00:16:103:0519,4
21BINKOWSKI Adrian 316timeworkGZINM321 000:01:5101:01:3401:33:3101:35:22+00:16:563:0719,2
22SPŁAWSKI Damian 507POZNAŃM322 000:00:1201:00:4401:33:5301:34:05+00:17:183:0719,2
23DUNAJEWSKI Marcin 584ŁOCHOWOM323 000:00:0701:00:5901:34:2101:34:28+00:17:463:0819,1
24MAZURKIEWICZ Marek 459BYDGOSZCZM324 000:01:2501:02:3301:34:5001:36:15+00:18:153:0919,0
25KACZMAREK Roman 394BARCINM325 000:00:4201:02:0201:35:0001:35:42+00:18:253:1018,9
26JARZĄBEK Bartłomiej 390MTB KarsinKARSINM326 000:01:0101:03:4401:35:1201:36:13+00:18:373:1018,9
27FLINIK Andrzej 351Butik FLOWBYDGOSZCZM327 000:01:4401:00:1001:35:1501:36:59+00:18:403:1018,9
28FOJUTOWSKI Sławek 353BYDGOSZCZM328 000:00:3201:01:5901:35:4101:36:13+00:19:063:1118,8
28PACHCIAREK Rafał 471BIAŁE BŁOTAM329 000:01:1801:02:3101:35:4101:36:59+00:19:063:1118,8
30FOGT Maciej 352KRUSZYNM330 000:02:0701:02:4101:35:5001:37:57+00:19:153:1118,8
31LOREK Marcin 441MTB KarsinKARSINM331 000:01:0001:03:3601:36:0301:37:03+00:19:283:1218,7
32TRZCIŃSKI Waldemar 526MTB KarsinKARSINM332 000:01:0601:03:1001:36:3701:37:43+00:20:023:1318,6
33BILSKI Marcin 315OPONEO MotorsportBYDGOSZCZM333 000:00:2501:02:1801:36:4001:37:05+00:20:053:1318,6
34DĄBROWSKI Adam 339BYDGOSZCZM334 000:00:1101:02:3301:36:5901:37:10+00:20:243:1318,6
35BACZYŃSKI Marcin 619KARSINM335 000:01:1001:04:3601:37:0901:38:19+00:20:343:1418,5
36FIGAT Radosław 349BYDGOSZCZM336 000:01:2801:03:5801:37:1301:38:41+00:20:383:1418,5
37FETER Tomasz 601CYKLO KWIDZYNKWIDZYNM337 000:00:4001:03:5701:37:5501:38:35+00:21:203:1518,4
38WĄS Sławomir 535AZS UKW BydgoszczBYDGOSZCZM338 000:01:3101:05:1201:37:5801:39:29+00:21:233:1518,4
39SZYMONIAK Michał 521brakBYDGOSZCZM339 000:00:4501:05:3001:38:0601:38:51+00:21:313:1618,3
40JATA Krzysztof 600CYKLO KWIDZYNKWIDZYNM340 000:00:3901:03:5701:38:5901:39:38+00:22:243:1718,2
41POLITOWICZ Remigiusz 480BYDGOSZCZM341 000:00:4601:04:5301:39:3801:40:24+00:23:033:1918,1
42SALINSKI Michal 501KWIDZYNM342 000:00:2901:04:1001:39:5601:40:25+00:23:213:1918,0
43KRAUSE Piotr 418CYKLO KWIDZYNGRUDZIĄDZM343 000:00:1701:05:0701:40:1101:40:28+00:23:363:2018,0
44KUCZUR Szymon 598MROCZM344 000:00:5501:06:2301:40:1701:41:12+00:23:423:2017,9
45ORNOWSKI Marcin 615BYDGOSZCZM345 000:01:2701:06:3901:40:2501:41:52+00:23:503:2017,9
46MILLER Mariusz 460ŁOMŻAM346 000:01:2301:05:1901:40:4001:42:03+00:24:053:2117,9
47KOPACZ Radosław 411BYDGOSZCZM347 000:00:3201:06:1201:40:5601:41:28+00:24:213:2117,8
48HEINRICH Paweł 372BYDGOSZCZM348 000:00:4201:04:3301:40:5901:41:41+00:24:243:2117,8
49MANIKOWSKI Artur 454SULNOWOM349 000:00:3201:04:0901:41:1001:41:42+00:24:353:2217,8
50STRZAŁKA Krzysztof 511Rowerowa BrzozaBYDGOSZCZM350 000:00:1701:05:5401:41:1101:41:28+00:24:363:2217,8
51SZATTEN Dawid 517BYDGOSZCZM351 000:02:3101:05:2401:41:1501:43:46+00:24:403:2217,8
52RYSZEWSKI Witosław Piotr 498TORUŃM352 000:01:3201:07:5201:41:3001:43:02+00:24:553:2317,7
53PIOTRKOWSKI Tomasz 477CHEŁMŻAM353 000:01:1901:06:2601:42:1901:43:38+00:25:443:2417,6
54SZAFRAŃSKI Grzegorz 514BYDGOSZCZM354 000:01:5801:08:0701:42:2101:44:19+00:25:463:2417,6
55MRÓWCZYŃSKI Sebastian 463BYDGOSZCZ M355 000:01:1401:07:1001:42:2901:43:43+00:25:543:2417,6
56KRÓL Rafał 421EBUDBYDGOSZCZM356 000:02:0701:08:5001:43:1001:45:17+00:26:353:2617,4
57TRZPIS Łukasz 527JW 1515 BYDGOSZCZBYDGOSZCZM357 000:06:0001:08:0501:43:2101:49:21+00:26:463:2617,4
58KOWALSKI Maciej 413BYDGOSZCZM358 000:00:3401:06:0401:43:4401:44:18+00:27:093:2717,4
59JANOWSKI Krzysztof 384CB 163KRUSZYNM359 000:02:0401:08:2801:44:3401:46:38+00:27:593:2917,2
60DRYLL Marek 346BYDGOSZCZM360 000:00:4201:08:2401:44:3701:45:19+00:28:023:2917,2
60KRAWISZ Maciej 420RUN BDGBYDGOSZCZM361 000:02:0101:08:4701:44:3701:46:38+00:28:023:2917,2
62ARNDT Jakub 303BYDGOSZCZM362 000:00:4901:09:2701:44:5401:45:43+00:28:193:2917,2
63NOWICKI Sławomir 465BYDGOSZCZM363 000:01:2301:08:1401:45:0101:46:24+00:28:263:3017,1
64IWIŃSKI Patryk 378BYDGOSZCZM364 000:00:5601:08:3601:45:1001:46:06+00:28:353:3017,1
65FIEGEL Wojciech 618BYDGOSZCZM365 000:00:4101:08:1601:45:3201:46:13+00:28:573:3117,1
66BAGROWSKI Adam 305BYDGOSZCZM366 000:00:3601:08:0701:45:3301:46:09+00:28:583:3117,1
67DĄBROWSKI Jarosław 625SZCZECINM367 000:00:5401:09:3801:45:4201:46:36+00:29:073:3117,0
68ZIÓŁKOWSKI Krystian 556BYDGOSZCZM368 000:00:5701:09:0701:46:0501:47:02+00:29:303:3217,0
69JAWORSKI Michał 628PRUSZCZM369 000:01:3401:09:5401:46:2201:47:56+00:29:473:3216,9
70CIERESZKO Paweł 335NAKŁO NAD NOTECIĄM370 000:01:0001:05:5501:46:3501:47:35+00:30:003:3316,9
71KUFEL Adrian 423ŚWIECIEM371 000:01:3101:08:5401:46:3601:48:07+00:30:013:3316,9
72LEBIODA Tomasz 429BYDGOSZCZM372 000:00:3801:12:0001:49:3501:50:13+00:33:003:3916,4
73LUBISZEWSKI Bartosz 443Dzikie Korby ŁABISZYNM373 000:01:4401:09:0101:50:3201:52:16+00:33:573:4116,3
74WIDAWSKI Dariusz 538POTULICEM374 000:01:5201:12:2501:51:0101:52:53+00:34:263:4216,2
75CENKIER Julian 332BYDGOSZCZM375 000:01:5001:11:1001:51:2901:53:19+00:34:543:4216,1
76KIELMANN Marcin 403MROCZAM376 000:00:3101:12:4201:51:3901:52:10+00:35:043:4316,1
77WIŚNICKI Patrycjusz 540BYDGOSZCZM377 000:01:3501:14:1201:52:1401:53:49+00:35:393:4416,0
78ZDROJEWSKI Marcin 552BYDGOSZCZM378 000:00:5201:13:0301:52:1501:53:07+00:35:403:4416,0
79TOMASZEK Marcin 524KRUSZYN KRAJEŃSKIM379 000:01:2401:12:2901:52:2601:53:50+00:35:513:4416,0
80WASILEWSKI Dariusz 534BYDGOSZCZM380 000:01:2101:12:1401:52:4501:54:06+00:36:103:4516,0
81PULCZYŃSKI Tomasz 482BYDGOSZCZM381 000:02:0001:14:0301:53:4301:55:43+00:37:083:4715,8
82KUJAWA Kamil 424SICIENKOM382 000:01:5801:14:1301:54:0701:56:05+00:37:323:4815,8
83UFIR Ireneusz 528BYDGOSZCZM383 000:01:4501:13:1901:54:5201:56:37+00:38:173:4915,7
84FISCHER Filip 350BIAŁE BŁOTAM384 000:01:1201:15:4101:55:3701:56:49+00:39:023:5115,6
85LEWANDOWSKI Marcin 434BYDGOSZCZM385 000:01:1501:14:3401:55:5301:57:08+00:39:183:5115,5
86LEMKOWSKI Rafał 431Cyklo KwidzynKWIDZYNM386 000:00:3001:11:1601:56:2401:56:54+00:39:493:5215,5
87PAPIEROWSKI Damian 472ŚWIECIEM387 000:01:3401:16:0701:57:0401:58:38+00:40:293:5415,4
88JAGODZIŃSKI Grzegorz 380AZS UKW BydgoszczBYDGOSZCZM388 000:01:3301:18:0901:57:3201:59:05+00:40:573:5515,3
89NORKUS Daniel 464device.plBYDGOSZCZM389 000:01:2001:15:2001:59:1402:00:34+00:42:393:5815,1
90RUGE Przemysław 493RYNARZEWOM390 000:00:5401:16:1501:59:3202:00:26+00:42:573:5915,1
91GORZECHOWSKI Przemek 364BYDGOSZCZM391 000:00:5801:16:0401:59:4402:00:42+00:43:093:5915,0
92MATCZAK Tomasz 457BYDGOSZCZM392 000:01:1801:19:4402:01:1102:02:29+00:44:364:0214,9
93ZAKROCKI Ronald 550BenefitKSO - OdszkodowaniaBYDGOSZCZM393 000:00:2601:13:5002:02:3702:03:03+00:46:024:0514,7
94SZYMCZAK Krzysztof 520ŚWIECIEM394 000:01:3601:17:1102:03:0502:04:41+00:46:304:0614,6
95GACKOWSKI Patryk 591BYDGOSZCZM395 000:01:1101:19:0602:04:5102:06:02+00:48:164:0914,4
96ZAJĄKAŁA Adam 549CZARNOWOM396 000:01:4701:19:3302:05:4702:07:34+00:49:124:1114,3
97CYL Dawid 336RUN BydgoszczBYDGOSZCZM397 000:01:3101:23:4402:07:1402:08:45+00:50:394:1414,1
98JEKEL Marcin 392BIKEBOYS CADMARIO TEAMBYDGOSZCZM398 000:02:0701:25:3202:10:2102:12:28+00:53:464:2013,8
99ŁOBODA Michał 446BYDGOSZCZM399 000:01:0301:26:2602:12:2202:13:25+00:55:474:2413,6
100PISARCZYK Szymon 479ŚWIECIEM3100 000:01:3801:25:5402:13:4602:15:24+00:57:114:2713,5
101LEWICKI Ernest 437Lion BrosBYDGOSZCZM3101 000:01:5501:29:5102:17:2602:19:21+01:00:514:3413,1
102GIZELA Michał 362KARTUZYM3102 000:02:0601:31:1602:17:4402:19:50+01:01:094:3513,1
103DUDA Damian 347MROCZAM3103 000:00:2802:19:3802:20:06+01:03:034:3912,9
104AFELT Jarosław 301JW 1515 BYDGOSZCZBYDGOSZCZM3104 000:03:0301:27:2102:21:4202:24:45+01:05:074:4312,7
105KLUNEK Maciej 406BYDGOSZCZM3105 000:01:3801:33:0602:23:5802:25:36+01:07:234:4712,5
106IWICKI Rafał 582RESCUE BIKE MTBTORUŃM3106 000:01:4201:41:1602:41:0602:42:48+01:24:315:2211,2
107ANDRZEJEWSKI Adam 302BYDGOSZCZM3107 000:02:3001:10:2902:52:4502:55:15+01:36:105:4510,4
108BETLEJEWSKI Sebastian 313BYDGOSZCZM3108 000:02:1301:57:4903:33:0203:35:15+02:16:277:068,4
109ZIEGERT Karol 553GDYNIAM3109 000:00:4801:07:22+00:17:463:2717,4
110SIERADZKI Adam 504INOWROCŁAW M3110 000:01:4501:14:13+00:24:373:4815,8
111JAGODZIŃSKI Michał 381Klub Kolarski WDA ŚwiecieŚWIECIEM3111 000:00:08   
112ŁUKOMSKI Filip 450BRAKŻNINM3112 000:01:40   
113ZAWIŚLAK Marcin 551BYDGOSZCZM3113 000:02:05   
114WYSMOLIŃSKI Konrad 569BYDGOSZCZM3114 001:56:54   
Znaleziono 114 wynik(ów)